Weather Roundup
Issued by NWS Springfield, MO

Home | Current Version | Previous Version | Text Only | Print | Product List | Glossary On
Versions: 1 2 3 4 5 6 7 8 9 10 11 12 13 14 15 16 17 18 19 20 21 22 23 24 25 26 27 28 29 30 31 32 33 34 35 36 37 38 39 40 41 42 43 44 45 46 47 48 49 50
000
NZUS99 KSGF 171957
HRRSGF

HOURLY WEATHER
NATIONAL WEATHER SERVICE SPRINGFIELD MO
200 PM CST SAT FEB 17 2018

......SGF CWA......

CITY           SKY/WX    TMP DP  RH WIND       PRES   REMARKS
SPRINGFIELD    CLOUDY    42  38  85 W13G25    30.08R
JOPLIN         MOSUNNY   48  39  71 W12       30.10F
WEST PLAINS    CLOUDY    43  40  89 W12       30.05S
ROLLA          CLOUDY    40  39  97 W16       30.03R WCI  31
BRANSON        CLOUDY    43  41  93 W10G16    30.07F

......SURROUNDING SGF CWA......

CITY           SKY/WX    TMP DP  RH WIND       PRES   REMARKS
CHANUTE        SUNNY     58  29  33 NW15G22   30.08F
PARSONS        SUNNY     55  35  47 NW9       30.10S
COFFEYVILLE    SUNNY     55  37  50 NW8       30.10F
EMPORIA        SUNNY     56  18  22 N20G30    30.09S
HARRISON AR    CLOUDY    46  42  86 W13       30.06F

......KANSAS AND MISSOURI......

CITY           SKY/WX    TMP DP  RH WIND       PRES   REMARKS
KANSAS CTY INT MOSUNNY   52  24  33 NW17G24   30.06R
SEDALIA        MOSUNNY   49  39  68 W14       30.05R
ST JOSEPH      SUNNY     50  25  37 NW18      30.07R
ST LOUIS       CLOUDY    39  38  96 SW14      30.01S FOG     WCI  31
WICHITA        SUNNY     60  16  18 N23G29    30.11R
TOPEKA         SUNNY     56  23  27 NW10      30.08R
OLATHE         SUNNY     50  26  39 NW13G20   30.06R

......TENNESSEE......

CITY           SKY/WX    TMP DP  RH WIND       PRES   REMARKS
MEMPHIS        NOT AVBL
NASHVILLE      LGT RAIN  44  41  89 CALM      30.06S FOG

......ARKANSAS.......

CITY           SKY/WX    TMP DP  RH WIND       PRES   REMARKS
FAYETTEVILLE   CLOUDY    45  43  93 W8        30.09F
FT SMITH       CLOUDY    48  44  86 W8        30.13R
LITTLE ROCK    CLOUDY    47  45  93 SW7       30.11S

......OKLAHOMA.......

CITY           SKY/WX    TMP DP  RH WIND       PRES   REMARKS
TULSA          MOSUNNY   57  38  48 W9        30.11S
PONCA CITY     SUNNY     58  27  30 N9        30.11S
MCALESTER      MOSUNNY   57  42  57 N7        30.12F
OKLAHOMA CITY  PTSUNNY   56  31  38 N13       30.12F

......IOWA............

CITY           SKY/WX    TMP DP  RH WIND       PRES   REMARKS
DES MOINES     NOT AVBL
QUAD CITIES    SNOW      32  30  92 SW14      29.91F VSB 1/4 WCI  22

......ILLINOIS........

CITY           SKY/WX    TMP DP  RH WIND       PRES   REMARKS
QUINCY         NOT AVBL
CHICAGO        CLOUDY    35  26  69 S9        29.92F WCI  28




USA.gov is the U.S. government's official web portal to all federal, state and local government web resources and services.